Location: Cointrin
(46.2167°N, 6.1167°E)
Time: 16:55:53
(UTC+00:00)

Cosmos 1606 - Pass Details

Date: 08 February 2023
Orbit: 488 x 510 km, 82.5° (Epoch: 22 March)

Event Time Altitude Azimuth Distance (km) Brightness Sun altitude
Rises 18:36:54 0° 347° (NNW) 2,650 6.5 -18.8°
Reaches altitude 10° 18:39:04 10° 343° (NNW) 1,757 5.6 -19.2°
Maximum altitude 18:42:51 57° 265° (W) 616 3.3 -19.8°
Drops below altitude 10° 18:46:35 10° 186° (S) 1,735 5.4 -20.5°
Sets 18:48:43 0° 183° (S) 2,612 6.3 -20.8°
